Home > Weather > Walnut Creek > Past weeks

Flag for USA Past Weather in Walnut Creek, California, USA — Yesterday and Last 2 Weeks

Now
65 °F

Sunny.


Feels Like: 65 °F
Forecast: 58 / 85 °F
Wind: 10 mph from Northwest

Location: Buchanan Field

Current Time: Jul 30, 2016 at 9:50:38 AM

Latest Report: Jul 30, 2016 at 8:53 AM


Visibility: 10 mi

Pressure: 29.76 "Hg

Humidity: 63%

Dew Point: 52 °F

Location of Walnut CreekLocation

Past Weather in Walnut Creek — Graph

°F

Walnut Creek Temperature Yesterday

Maximum temperature yesterday: 99 °F (at 3:53 PM)
Minimum temperature yesterday: 59 °F (at 5:53 AM)
Average temperature yesterday: 76 °F

High & Low Weather Summary for the Past Weeks

 TemperatureHumidityPressure
High103 °F (Jul 26, 3:53 PM)81% (Jul 19, 5:53 AM)30.06 "Hg (Jul 19, 5:53 AM)
Low56 °F (Jul 19, 5:53 AM)8% (Jul 28, 5:53 PM)29.69 "Hg (Jul 29, 5:53 PM)
Average73 °F49%29.87 "Hg
* Reported Jul 15 7:53 AM — Jul 30 7:53 AM, Walnut Creek, Weather by CustomWeather, © 2016

Note: Actual official high and low records may vary slightly from our data, if they occured in-between our weather recording intervals... More about our weather records

Advertising

Walnut Creek Weather History for the Previous 24 Hours

Scroll right to see more
 ConditionsComfort  
Time TempWeatherWind HumidityBarometerVisibility
7:53 AM
Sat, Jul 30
62 °FPassing clouds.3 mph70%29.75 "Hg10 mi
6:53 AM59 °FClear.6 mph78%29.74 "Hg10 mi
5:53 AM57 °FClear.3 mph78%29.72 "Hg10 mi
4:53 AM58 °FClear.No wind75%29.72 "Hg10 mi
3:53 AM59 °FClear.3 mph75%29.71 "Hg10 mi
2:53 AM62 °FClear.8 mph67%29.72 "Hg10 mi
1:53 AM63 °FClear.5 mph65%29.72 "Hg10 mi
12:53 AM65 °FClear.3 mph61%29.72 "Hg10 mi
11:53 PM
Fri, Jul 29
65 °FClear.6 mph63%29.72 "Hg10 mi
10:53 PM68 °FClear.7 mph59%29.72 "Hg10 mi
9:53 PM76 °FClear.5 mph39%29.73 "Hg10 mi
8:53 PM83 °FSunny.8 mph28%29.71 "Hg10 mi
7:53 PM88 °FSunny.9 mph26%29.70 "Hg10 mi
6:53 PM93 °FSunny.10 mph23%29.69 "Hg10 mi
5:53 PM96 °FSunny.14 mph19%29.69 "Hg10 mi
4:53 PM97 °FSunny.14 mph17%29.70 "Hg10 mi
3:53 PM99 °FSunny.15 mph9%29.70 "Hg10 mi
2:53 PM95 °FSunny.13 mph22%29.72 "Hg10 mi
1:53 PM91 °FSunny.13 mph26%29.75 "Hg10 mi
12:53 PM87 °FSunny.8 mph31%29.77 "Hg10 mi
11:53 AM78 °FSunny.10 mph43%29.79 "Hg10 mi
10:53 AM75 °FSunny.9 mph48%29.79 "Hg10 mi
9:53 AM70 °FSunny.10 mph55%29.80 "Hg10 mi
Weather by CustomWeather, © 2016

See weather overviewHow to use our weather pages